• In Hungary
  • List of Countries
  • For 7 days
  • Water Temperature
  • Satellite Maps
  • Weather Map
  • News
  • Weather Widgets
  • user-avatar
    Login

    Hourly Weather Sucre

    Today, 23 October, Monday

    Time Temperature Precipitation Wind Pressure Humidity
    00:00 +12°C° 0 mm 2 mps 541 mmHg 82%
    01:00 +12°C° 0 mm 2 mps 540 mmHg 84%
    02:00 +11°C° 0 mm 1 mps 540 mmHg 85%
    03:00 +11°C° 0 mm 1 mps 540 mmHg 86%
    04:00 +11°C° 0 mm 1 mps 540 mmHg 86%
    05:00 +11°C° 0 mm 1 mps 540 mmHg 87%
    06:00 +12°C° 0 mm 1 mps 540 mmHg 83%
    07:00 +12°C° 0 mm 1 mps 541 mmHg 78%
    08:00 +13°C° 0 mm 1 mps 541 mmHg 74%
    09:00 +15°C° 0 mm 1 mps 542 mmHg 66%
    10:00 +17°C° 0 mm 2 mps 542 mmHg 57%
    11:00 +18°C° 0 mm 2 mps 543 mmHg 49%
    12:00 +19°C° 0 mm 3 mps 543 mmHg 46%
    13:00 +20°C° 0 mm 3 mps 543 mmHg 43%
    14:00 +21°C° 0 mm 3 mps 543 mmHg 40%
    15:00 +20°C° 0.2 mm 4 mps 542 mmHg 43%
    16:00 +20°C° 0.2 mm 4 mps 541 mmHg 46%
    17:00 +19°C° 0.2 mm 4 mps 541 mmHg 49%
    18:00 +18°C° 0.3 mm 4 mps 541 mmHg 53%
    19:00 +17°C° 0.3 mm 3 mps 541 mmHg 56%
    20:00 +16°C° 0.3 mm 3 mps 541 mmHg 60%
    21:00 +16°C° 0 mm 2 mps 541 mmHg 63%
    22:00 +15°C° 0 mm 2 mps 541 mmHg 66%
    23:00 +15°C° 0 mm 1 mps 541 mmHg 69%

    Tomorrow, 24 October, Tuesday

    Time Temperature Precipitation Wind Pressure Humidity
    00:00 +14°C° 0 mm 1 mps 540 mmHg 71%
    01:00 +14°C° 0 mm 1 mps 540 mmHg 73%
    02:00 +14°C° 0 mm 1 mps 539 mmHg 75%
    03:00 +13°C° 0 mm 1 mps 539 mmHg 77%
    04:00 +13°C° 0 mm 1 mps 539 mmHg 78%
    05:00 +13°C° 0 mm 1 mps 539 mmHg 80%
    06:00 +14°C° 0 mm 1 mps 540 mmHg 73%
    07:00 +15°C° 0 mm 1 mps 540 mmHg 66%
    08:00 +16°C° 0 mm 1 mps 541 mmHg 59%
    09:00 +19°C° 0 mm 1 mps 542 mmHg 51%
    10:00 +20°C° 0 mm 2 mps 543 mmHg 43%
    11:00 +23°C° 0 mm 2 mps 544 mmHg 35%
    12:00 +24°C° 0 mm 3 mps 543 mmHg 33%
    13:00 +24°C° 0 mm 3 mps 543 mmHg 31%
    14:00 +25°C° 0 mm 4 mps 543 mmHg 29%
    15:00 +23°C° 0.2 mm 5 mps 542 mmHg 31%
    16:00 +23°C° 0.2 mm 5 mps 542 mmHg 34%
    17:00 +22°C° 0.2 mm 6 mps 541 mmHg 37%
    18:00 +21°C° 0.2 mm 5 mps 541 mmHg 44%
    19:00 +19°C° 0.2 mm 4 mps 541 mmHg 51%
    20:00 +18°C° 0.2 mm 3 mps 541 mmHg 58%
    21:00 +17°C° 0.9 mm 3 mps 541 mmHg 62%
    22:00 +17°C° 0.9 mm 3 mps 541 mmHg 66%
    23:00 +16°C° 0.9 mm 2 mps 541 mmHg 70%

    Day after tomorrow, 25 October, Wednesday

    Time Temperature Precipitation Wind Pressure Humidity
    00:00 +16°C° 0.4 mm 2 mps 541 mmHg 73%
    01:00 +15°C° 0.4 mm 1 mps 540 mmHg 75%
    02:00 +15°C° 0.4 mm 1 mps 540 mmHg 77%
    03:00 +14°C° 0 mm 1 mps 539 mmHg 79%
    04:00 +14°C° 0 mm 1 mps 539 mmHg 81%
    05:00 +14°C° 0 mm 1 mps 539 mmHg 82%
    06:00 +15°C° 0 mm 1 mps 540 mmHg 75%
    07:00 +16°C° 0 mm 1 mps 541 mmHg 68%
    08:00 +17°C° 0 mm 2 mps 542 mmHg 61%
    09:00 +19°C° 0 mm 2 mps 542 mmHg 52%
    10:00 +21°C° 0 mm 2 mps 543 mmHg 43%
    11:00 +22°C° 0 mm 3 mps 543 mmHg 33%
    12:00 +24°C° 0 mm 3 mps 543 mmHg 30%
    13:00 +25°C° 0 mm 4 mps 543 mmHg 27%
    14:00 +26°C° 0 mm 4 mps 543 mmHg 24%
    15:00 +26°C° 0.1 mm 4 mps 542 mmHg 28%
    16:00 +25°C° 0.1 mm 5 mps 541 mmHg 31%
    17:00 +23°C° 0.1 mm 5 mps 540 mmHg 35%
    18:00 +22°C° 0.3 mm 4 mps 540 mmHg 41%
    19:00 +21°C° 0.3 mm 3 mps 540 mmHg 46%
    20:00 +20°C° 0.3 mm 2 mps 540 mmHg 52%
    21:00 +19°C° 0 mm 2 mps 540 mmHg 56%
    22:00 +18°C° 0 mm 2 mps 540 mmHg 60%
    23:00 +18°C° 0 mm 2 mps 540 mmHg 64%

    26 October, Thursday

    Time Temperature Precipitation Wind Pressure Humidity
    00:00 +17°C° 0 mm 2 mps 540 mmHg 65%
    01:00 +17°C° 0 mm 2 mps 539 mmHg 67%
    02:00 +16°C° 0 mm 1 mps 539 mmHg 69%
    03:00 +16°C° 0 mm 1 mps 539 mmHg 70%
    04:00 +15°C° 0 mm 1 mps 538 mmHg 70%
    05:00 +15°C° 0 mm 1 mps 538 mmHg 71%
    06:00 +16°C° 0 mm 1 mps 540 mmHg 63%
    07:00 +18°C° 0 mm 1 mps 541 mmHg 54%
    08:00 +20°C° 0 mm 1 mps 542 mmHg 46%
    09:00 +21°C° 0 mm 1 mps 542 mmHg 40%
    10:00 +23°C° 0 mm 2 mps 543 mmHg 33%
    11:00 +24°C° 0 mm 2 mps 543 mmHg 27%
    12:00 +25°C° 0 mm 3 mps 543 mmHg 26%
    13:00 +26°C° 0 mm 4 mps 543 mmHg 25%
    14:00 +27°C° 0 mm 5 mps 543 mmHg 25%
    15:00 +24°C° 0 mm 6 mps 542 mmHg 30%
    16:00 +23°C° 0 mm 7 mps 542 mmHg 35%
    17:00 +22°C° 0 mm 9 mps 541 mmHg 41%
    18:00 +21°C° 1.3 mm 7 mps 541 mmHg 49%
    19:00 +19°C° 1.3 mm 5 mps 541 mmHg 58%
    20:00 +17°C° 1.3 mm 3 mps 541 mmHg 66%
    21:00 +17°C° 0.7 mm 2 mps 541 mmHg 67%
    22:00 +17°C° 0.7 mm 2 mps 541 mmHg 68%
    23:00 +18°C° 0.7 mm 1 mps 541 mmHg 70%

    27 October, Friday

    Time Temperature Precipitation Wind Pressure Humidity
    00:00 +16°C° 0 mm 1 mps 540 mmHg 71%
    01:00 +16°C° 0 mm 1 mps 540 mmHg 73%
    02:00 +16°C° 0 mm 1 mps 539 mmHg 74%
    03:00 +15°C° 0 mm 1 mps 539 mmHg 76%
    04:00 +15°C° 0 mm 1 mps 539 mmHg 78%
    05:00 +15°C° 0 mm 1 mps 539 mmHg 80%
    06:00 +16°C° 0.1 mm 1 mps 540 mmHg 75%
    07:00 +16°C° 0.1 mm 1 mps 540 mmHg 70%
    08:00 +18°C° 0.1 mm 1 mps 541 mmHg 65%
    09:00 +19°C° 0 mm 2 mps 541 mmHg 57%
    10:00 +21°C° 0 mm 2 mps 542 mmHg 48%
    11:00 +22°C° 0 mm 3 mps 542 mmHg 40%
    12:00 +24°C° 0 mm 3 mps 542 mmHg 37%
    13:00 +25°C° 0 mm 4 mps 542 mmHg 35%
    14:00 +26°C° 0 mm 5 mps 542 mmHg 32%
    15:00 +23°C° 2.2 mm 5 mps 540 mmHg 40%
    16:00 +22°C° 2.2 mm 5 mps 539 mmHg 47%
    17:00 +20°C° 2.2 mm 5 mps 538 mmHg 55%
    18:00 +19°C° 3.4 mm 4 mps 538 mmHg 62%
    19:00 +17°C° 3.4 mm 3 mps 538 mmHg 69%
    20:00 +16°C° 3.4 mm 2 mps 539 mmHg 77%
    21:00 +16°C° 0.4 mm 2 mps 539 mmHg 76%
    22:00 +16°C° 0.4 mm 2 mps 539 mmHg 75%
    23:00 +16°C° 0.4 mm 1 mps 539 mmHg 74%

    28 October, Saturday

    Time Temperature Precipitation Wind Pressure Humidity
    00:00 +15°C° 0.1 mm 1 mps 539 mmHg 74%
    01:00 +15°C° 0.1 mm 1 mps 538 mmHg 75%
    02:00 +15°C° 0.1 mm 1 mps 538 mmHg 75%
    03:00 +15°C° 0 mm 1 mps 538 mmHg 77%
    04:00 +14°C° 0 mm 1 mps 538 mmHg 80%
    05:00 +14°C° 0 mm 1 mps 538 mmHg 83%
    06:00 +15°C° 0 mm 1 mps 538 mmHg 79%
    07:00 +15°C° 0 mm 2 mps 539 mmHg 76%
    08:00 +16°C° 0 mm 2 mps 539 mmHg 72%
    09:00 +17°C° 0.1 mm 2 mps 539 mmHg 65%
    10:00 +19°C° 0.1 mm 3 mps 540 mmHg 59%
    11:00 +20°C° 0.1 mm 3 mps 540 mmHg 52%
    12:00 +21°C° 0.8 mm 4 mps 540 mmHg 50%
    13:00 +22°C° 0.8 mm 4 mps 539 mmHg 48%
    14:00 +22°C° 0.8 mm 5 mps 539 mmHg 45%
    15:00 +22°C° 1.5 mm 5 mps 538 mmHg 47%
    16:00 +21°C° 1.5 mm 5 mps 538 mmHg 48%
    17:00 +21°C° 1.5 mm 5 mps 537 mmHg 50%
    18:00 +20°C° 0.8 mm 4 mps 537 mmHg 54%
    19:00 +19°C° 0.8 mm 3 mps 537 mmHg 58%
    20:00 +18°C° 0.8 mm 2 mps 538 mmHg 62%
    21:00 +17°C° 0.3 mm 2 mps 538 mmHg 65%
    22:00 +17°C° 0.3 mm 2 mps 538 mmHg 67%
    23:00 +16°C° 0.3 mm 1 mps 538 mmHg 69%
    Show more